Location: Plainartige
(45.6866°N, 1.7993°E)
Time: 01:40:41
(UTC+00:00)

RS-15 - Pass Details

Date: 05 July 2022
Orbit: 1881 x 2163 km, 64.8° (Epoch: 10 August)

Event Time Altitude Azimuth Distance (km) Brightness Sun altitude
Rises 22:55:13 0° 323° (NW) 5,699 11.7 -20.1°
Reaches altitude 10° 22:58:41 10° 322° (NW) 4,691 11.0 -20.3°
Maximum altitude 23:10:59 75° 241° (WSW) 2,187 8.1 -20.8°
Enters shadow 23:18:27 28° 162° (SSE) 3,319 8.6 -21.0°
